Home   Weather   Cartagena   Past weeks
Flag for Colombia

Past Weather in Cartagena, Colombia — Yesterday and Last 2 Weeks

Now
84 °F

Partly cloudy.


Feels Like: 94 °F
Forecast: 87 / 80 °F
Wind: 6 mph from Northeast

Location: Cartagena / Rafael Nunez

Current Time: Apr 20, 2019 at 8:09:54 pm

Latest Report: Apr 20, 2019 at 7:00 pm


Visibility: N/A

Pressure: 29.84 "Hg

Humidity: 79%

Dew Point: 77 °F

Location of CartagenaLocation

Past Weather in Cartagena — Graph

°F

Cartagena Temperature Yesterday

Maximum temperature yesterday: 90 °F (at 11:00 am)
Minimum temperature yesterday: 77 °F (at 4:00 am)
Average temperature yesterday: 84 °F

High & Low Weather Summary for the Past Weeks

 TemperatureHumidityPressure
High93 °F (Apr 16, 11:00 am)94% (Apr 6, 3:00 am)29.94 "Hg (Apr 6, 3:00 am)
Low75 °F (Apr 6, 4:00 am)59% (Apr 12, 3:00 pm)29.69 "Hg (Apr 12, 4:00 pm)
Average84 °F79%29.80 "Hg
* Reported Apr 5 7:00 pm — Apr 20 7:00 pm, Cartagena. Weather by CustomWeather, © 2019

Note: Actual official high and low records may vary slightly from our data, if they occured in-between our weather recording intervals... More about our weather records

Advertising

Cartagena Weather History for the Previous 24 Hours

Scroll right to see more
 ConditionsComfort  
Time TempWeatherWind HumidityBarometerVisibility
7:00 pm
Sat, Apr 20
84 °FPartly cloudy.6 mph79%29.84 "HgN/A
6:00 pm86 °FPartly sunny.3 mph75%29.79 "Hg5 mi
5:00 pm86 °FScattered showers. Broken clouds.10 mph75%29.80 "Hg5 mi
4:00 pm84 °FScattered showers. Partly sunny.7 mph79%29.82 "Hg6 mi
3:00 pm86 °FScattered showers. Broken clouds.9 mph75%29.79 "Hg4 mi
2:00 pm86 °FScattered clouds.10 mph79%29.82 "Hg5 mi
1:30 pm86 °FThunderstorms. Scattered clouds.N/A75%29.82 "Hg5 mi
1:00 pm88 °FScattered clouds.10 mph70%29.84 "HgN/A
12:00 pm88 °FPassing clouds.9 mph75%29.86 "HgN/A
11:00 am88 °FPassing clouds.9 mph75%29.88 "HgN/A
10:00 am88 °FScattered clouds.5 mph75%29.88 "HgN/A
9:00 am86 °FScattered clouds.3 mph79%29.88 "HgN/A
8:00 am82 °FBroken clouds.2 mph89%29.87 "Hg6 mi
7:00 am82 °FBroken clouds.3 mph84%29.84 "Hg4 mi
6:00 am81 °FPartly sunny.2 mph89%29.82 "Hg4 mi
5:00 am81 °FPassing clouds.3 mph89%29.81 "HgN/A
4:00 am81 °FPassing clouds.2 mph89%29.79 "HgN/A
3:00 am81 °FPassing clouds.5 mph89%29.80 "HgN/A
2:00 am81 °FPassing clouds.6 mph89%29.80 "HgN/A
1:00 am81 °FPassing clouds.6 mph89%29.82 "HgN/A
12:00 am81 °FPassing clouds.6 mph89%29.83 "HgN/A
11:00 pm
Fri, Apr 19
81 °FPassing clouds.6 mph89%29.85 "HgN/A
10:00 pm81 °FPassing clouds.7 mph84%29.82 "HgN/A
9:00 pm82 °FPassing clouds.6 mph79%29.80 "HgN/A
8:00 pm82 °FPassing clouds.6 mph79%29.80 "HgN/A
Weather by CustomWeather, © 2019

See weather overview